Regional Weather Roundup
Issued by NWS Raleigh/Durham, NC

Home | Current Version | Previous Version | Text Only | Print | Product List | Glossary On
Versions: 1 2 3 4 5 6 7 8 9 10 11 12 13 14 15 16 17 18 19 20 21 22 23 24 25 26 27 28 29 30 31 32 33 34 35 36 37 38 39 40 41 42 43 44 45 46 47 48 49 50
000
ASUS42 KRAH 260510
RWRRAH
NORTH CAROLINA WEATHER ROUNDUP
NATIONAL WEATHER SERVICE RALEIGH NC
100 AM EDT SAT JUL 26 2014

NOTE: "FAIR" INDICATES FEW OR NO CLOUDS BELOW 12,000 FEET WITH NO
SIGNIFICANT WEATHER AND/OR OBSTRUCTIONS TO VISIBILITY.

NCZ001-053-055-056-065-067-260600-
WESTERN NORTH CAROLINA

CITY           SKY/WX    TMP DP  RH WIND       PRES   REMARKS
ASHEVILLE      PTCLDY    69  67  93 CALM      30.13R
JEFFERSON      CLOUDY    65  63  91 CALM      30.16R
MORGANTON      CLEAR     68  67  99 CALM      30.12R FOG
HICKORY        CLEAR     73  68  84 S5        30.06R
RUTHERFORDTON  MOCLDY    73  70  92 CALM      30.07R
MOUNT AIRY     CLOUDY    74  69  83 S7        30.05S
BOONE          PTCLDY    64  62  94 CALM      30.16S
$$

NCZ021-022-025-041-071-084-088-260600-
CENTRAL NORTH CAROLINA

CITY           SKY/WX    TMP DP  RH WIND       PRES   REMARKS
CHARLOTTE      PTCLDY    74  70  87 S5        30.06R
GREENSBORO     MOCLDY    73  68  83 S8        30.05S
WINSTON-SALEM  CLOUDY    73  67  81 S3        30.06F
RALEIGH-DURHAM PTCLDY    72  67  84 S3        30.04F
FORT BRAGG     CLEAR     75  73  92 S5        30.02F
FAYETTEVILLE   PTCLDY    75  73  93 SE5       30.02F
BURLINGTON     CLEAR     70  66  87 CALM      30.05S
LAURINBURG     PTCLDY    74  72  93 SE3       30.02F
$$

NCZ011-015-027-028-043-044-047-080-103-260600-
NORTHEASTERN NORTH CAROLINA

CITY           SKY/WX    TMP DP  RH WIND       PRES   REMARKS
ROCKY MT-WILSO CLEAR     73  70  90 CALM      30.03F
GREENVILLE     CLEAR     73  72  94 CALM      30.06S
WASHINGTON     CLEAR     71  67  88 E3        30.04F
ELIZABETH CITY CLEAR     70  61  73 SE5       30.03F
MANTEO         NOT AVBL
CAPE HATTERAS  CLOUDY    74  69  85 E6        30.04F
$$

NCZ078-087-090-091-093-098-101-260600-
SOUTHEASTERN NORTH CAROLINA

CITY           SKY/WX    TMP DP  RH WIND       PRES   REMARKS
LUMBERTON      CLOUDY    76  74  93 CALM      30.01F
GOLDSBORO      CLEAR     74  73  98 S2        30.01F
KINSTON        CLEAR     74  72  93 CALM      30.04F
KENANSVILLE    PTCLDY    70  69  95 CALM      30.04F FOG
NEW BERN       CLEAR     73  69  87 S3        30.04F
CHERRY POINT   MOCLDY    74  69  85 SE3       30.05S
BEAUFORT       MOCLDY    78  73  84 E6        30.03F
JACKSONVILLE   PTCLDY    76  72  87 E6        30.02F
WILMINGTON     PTCLDY    75  73  93 CALM      30.02F
$$



USA.gov is the U.S. government's official web portal to all federal, state and local government web resources and services.